Location: Novokuznetsk
(53.7500°N, 87.1000°E)
Time: 13:38:25
(UTC+06:00)

ISS - Pass Details

Date: 20 July 2018
Orbit: 402 x 408 km, 51.6° (Epoch: 23 July)

Event Time Altitude Azimuth Distance (km) Brightness Sun altitude
Rises 23:08:15 0° 246° (WSW) 2,320 -0.1 -14.2°
Reaches altitude 10° 23:10:22 10° 240° (WSW) 1,463 -1.1 -14.3°
Maximum altitude 23:13:31 46° 166° (SSE) 553 -3.6 -14.4°
Drops below altitude 10° 23:16:42 10° 91° (E) 1,470 -1.2 -14.5°
Sets 23:18:50 0° 86° (E) 2,333 -0.1 -14.6°
